CZ-3C DEB, 40207

Orbit data source: Space-Track

CZ-3C DEB, 40207 is space debris in HEO originally from a launch on Fri, 24 Feb 2012 UTC launched from the Xichang Space Center, China (XSC). Debris objects in space refer to the collection of defunct objects orbiting the Earth. Examples of debris include non-operational satellites, rocket bodies, and fragments generated from explosions, collisions, or faulty payload assembly.

Loading next visibility...
Identifier
40207, 2012-008S
Orbit
HEO
Last TLE update
6 days ago
Origin
Manufacturer
CALT
Mission
Spacecraft
Bus & Motor
Unknown
Mass
Unknown
Launch date (UTC)
2012-02-24 (13 years ago)
Launch vehicle
Unknown
Launch site
Xichang Space Center, China (XSC)
Object type
Payload
Rocket body
Debris
Shape & HBR
Unknown
Radar Cross Section
Medium (>0.1 m² and <1 m²)

Expand to show TLE details & history

TLE from 6 days ago
0 CZ-3C DEB
1 40207U 12008S   25185.96302579  .00000170  00000-0  13592-2 0  9996
2 40207  19.0970  75.4176 7215881 152.1444 280.1155  2.23619498 98355
Epoch: 2025-07-04T23:06Z
TLE epoch observation values (Epoch: 2025-07-04T23:06:45.428Z)
Latitude
0.00004°
Longitude
165.47012°
Altitude
26,380.298 km
Speed
2.863 km/s
True Right ascension
05h 01m 28s
True Declination
0° 00' 00"
Sunlit
Object was in daylight at epoch
Visualization orbit readout
Latitude
-11.70346°
Longitude
126.70562°
Altitude
32,937.463 km
Speed
2.035 km/s
Apparent Right ascension
02h 16m 16s
Apparent Declination
-15° 37' 12"
Sunlit
Object is in daylight
Visualization observer readout
Local Sidereal Time
12:54:58
Azimuth
318.112° NNW
Elevation
-59.933°
Doppler factor
1
Orbital elements
Apogee altitude
36,155.992 km
Perigee altitude
500.4 km
Semi-major axis
24,706.333 km
Eccentricity
0.72159
Inclination
19.097°
RAAN
75.4176°
Arg. of periapsis
152.1444°
True anomaly
Unknown
Mean anomaly
280.1155°
Eccentric anomaly
Unknown
Mean motion
0.5589 °/min
Orbital period
644.13 mins
BSTAR
0.0013592
Loading maneuver chart data...
Loading SW <> Apogee altitude chart data...
Loading historical data...
Loading historical data...
Loading historical data...
Loading historical data...
Loading historical data...
Loading historical data...
Loading historical data...

CZ-3C DEB Visibility forecast

Observer location: undefined°, undefined°

Span
Click to sort rows by Start time (UTC) header in descending order
Start Az.
Max El. time (UTC)
Max El. Az.
Max El.
End time (UTC)
End Az.
463 mins2025-07-11 10:20:42.839Z131.384° SE2025-07-11 17:04:42.839Z157.819° S34.955°2025-07-11 18:03:42.839Z105.205° ESE
|